{"data":{"norad_id":62097,"epoch":"2026-05-24T20:15:55.842912Z","epoch_age_seconds":95219,"freshness":"FRESH","line1":"1 62097U 24220K   26144.84439633  .00230011  00000+0  17426-2 0  9999","line2":"2 62097  43.0001 303.7425 0001401 283.2186  76.8525 15.70898639 87031","mean_motion":15.70898639,"eccentricity":0.0001401,"inclination_deg":43.0001,"raan_deg":303.7425,"arg_perigee_deg":283.2186,"mean_anomaly_deg":76.8525,"bstar":0.0017426,"rev_number":8703,"period_min":91.66727656704,"perigee_km":355.38396707405,"apogee_km":357.27096401729,"semimajor_km":6734.4644655457,"source":"CELESTRAK","updated_at":"2026-05-25T13:38:19.558853Z"}}